TimeEST,TemperatureF,Dew PointF,Humidity,Sea Level PressureIn,VisibilityMPH,Wind Direction,Wind SpeedMPH,Gust SpeedMPH,PrecipitationIn,Events,Conditions,WindDirDegrees,DateUTC
12:51 AM,33.1,21.0,61,29.78,10.0,NW,9.2,21.9,N/A,,Overcast,310,2013-03-05 05:51:00
2:51 AM,32.0,19.9,61,29.80,10.0,NW,13.8,21.9,N/A,,Overcast,310,2013-03-05 07:51:00
3:51 AM,32.0,19.9,61,29.82,10.0,NW,10.4,17.3,N/A,,Overcast,320,2013-03-05 08:51:00
4:51 AM,30.9,19.9,64,29.85,10.0,NW,10.4,-,N/A,,Overcast,320,2013-03-05 09:51:00
5:51 AM,30.9,19.9,64,29.88,10.0,NW,12.7,-,N/A,,Mostly Cloudy,310,2013-03-05 10:51:00
6:51 AM,32.0,19.9,61,29.89,10.0,NW,10.4,-,N/A,,Mostly Cloudy,310,2013-03-05 11:51:00
7:51 AM,34.0,21.0,59,29.92,10.0,NW,8.1,-,N/A,,Mostly Cloudy,310,2013-03-05 12:51:00
8:51 AM,37.4,21.2,52,29.93,10.0,NW,9.2,18.4,N/A,,Mostly Cloudy,320,2013-03-05 13:51:00
9:48 AM,42.8,24.8,49,29.93,10.0,North,15.0,21.9,N/A,,Mostly Cloudy,350,2013-03-05 14:48:00
9:51 AM,41.0,24.1,51,29.94,10.0,North,15.0,20.7,N/A,,Mostly Cloudy,360,2013-03-05 14:51:00
10:51 AM,42.1,25.0,51,29.94,10.0,NNE,15.0,19.6,N/A,,Mostly Cloudy,20,2013-03-05 15:51:00
11:51 AM,43.0,25.0,49,29.94,10.0,NNE,11.5,-,N/A,,Mostly Cloudy,30,2013-03-05 16:51:00
12:51 PM,46.0,26.1,46,29.94,10.0,North,9.2,-,N/A,,Scattered Clouds,360,2013-03-05 17:51:00
1:51 PM,46.9,27.0,46,29.94,10.0,NNE,8.1,-,N/A,,Mostly Cloudy,30,2013-03-05 18:51:00
2:51 PM,45.0,26.1,48,29.96,10.0,NNE,12.7,-,N/A,,Mostly Cloudy,30,2013-03-05 19:51:00
3:51 PM,44.1,26.1,49,29.99,10.0,NE,10.4,-,N/A,,Mostly Cloudy,50,2013-03-05 20:51:00
4:51 PM,44.1,26.1,49,30.00,10.0,NNE,5.8,-,N/A,,Mostly Cloudy,20,2013-03-05 21:51:00
5:51 PM,42.1,27.0,55,30.01,10.0,ENE,9.2,-,N/A,,Mostly Cloudy,60,2013-03-05 22:51:00
6:51 PM,39.0,28.9,67,30.03,10.0,NE,9.2,-,N/A,,Mostly Cloudy,50,2013-03-05 23:51:00
7:51 PM,37.9,28.9,70,30.04,10.0,ENE,8.1,-,N/A,,Scattered Clouds,60,2013-03-06 00:51:00
8:51 PM,36.0,30.0,79,30.04,10.0,NE,5.8,-,N/A,,Partly Cloudy,40,2013-03-06 01:51:00
9:51 PM,35.1,28.9,78,30.04,10.0,NNE,4.6,-,N/A,,Partly Cloudy,20,2013-03-06 02:51:00
10:51 PM,37.0,30.9,79,30.06,10.0,NW,3.5,-,N/A,,Scattered Clouds,310,2013-03-06 03:51:00
11:51 PM,34.0,30.0,85,30.03,10.0,North,3.5,-,N/A,,Partly Cloudy,10,2013-03-06 04:51:00